Flag for Brazil Weather past 2 weeks in Londrina, Paraná, Brazil

70 °F

Partly cloudy.

Feels Like: 70 °F
Forecast: 72 / 83 °F
Wind: 3 mph from East

Location: Londrina Aeroporto

Current Time: Nov 24, 2015 at 10:58:55 PM

Latest Report: Nov 24, 2015 at 10:00 PM

Visibility: N/A

Pressure: 29.80 "Hg (27.75 "Hg at 615m altitude)

Humidity: 94%

Dew point: 68 °F

Location of LondrinaLocation

Historic Weather in Londrina — Graph


Londrina temperature yesterday

Maximum temperature yesterday: 81 °F (at 10:00 AM)
Minimum temperature yesterday: 68 °F (at 3:00 PM)
Average temperature yesterday: 74 °F

Past Weeks' High & Low Weather Summary

High95 °F (Nov 14, 3:00 PM)100% (Nov 17, 12:00 AM)30.07 "Hg (Nov 17, 12:00 AM)
Low32 °F (Nov 17, 3:00 PM)44% (Nov 14, 3:00 PM)29.65 "Hg (Nov 19, 6:00 PM)
Average77 °F79%29.88 "Hg
* Reported Nov 9 9:00 PM — Nov 24 9:00 PM, Londrina, Weather by CustomWeather, © 2015

Note: Actual official high and low records may vary slightly from our data, if they occured in-between our weather recording intervals... More about our weather records


Londrina weather history for previous 24 hours

Time TempWeatherWind HumidityBarometerVisibility
9:00 PM
Tue, Nov 24
72 °FPartly cloudy.5 mph94%29.80 "Hg5 mi
8:00 PM72 °FPartly cloudy.8 mph94%29.80 "HgN/A
7:00 PM72 °FPartly sunny.7 mph94%29.77 "HgN/A
6:00 PM73 °FBroken clouds.5 mph89%29.74 "HgN/A
5:00 PM72 °FBroken clouds.5 mph94%29.74 "HgN/A
4:00 PM72 °FPartly sunny.5 mph94%29.77 "Hg6 mi
3:00 PM72 °FMostly cloudy.5 mph94%29.77 "Hg4 mi
2:00 PM70 °FFog.3 mph94%29.77 "Hg2 mi
1:00 PM70 °FLight rain. Mostly cloudy.2 mph94%29.80 "Hg2 mi
12:00 PM70 °FLight rain. Mostly cloudy.6 mph94%29.80 "Hg2 mi
11:00 AM70 °FMostly cloudy.6 mph94%29.80 "Hg5 mi
10:00 AM70 °FRain. Cloudy.17 mph94%29.77 "Hg2 mi
9:00 AMN/AThunderstorms.12 mphN/AN/A4 mi
8:00 AM68 °FLight rain. Low clouds.13 mph100%29.80 "Hg2 mi
7:00 AM70 °FThunderstorms. Low clouds.7 mph94%29.74 "Hg3 mi
6:00 AM70 °FPassing clouds.8 mph94%29.74 "Hg4 mi
5:00 AM70 °FPassing clouds.7 mph94%29.71 "Hg5 mi
4:00 AM70 °FThunderstorms. Partly cloudy.2 mph94%29.74 "HgN/A
3:00 AM70 °FPassing clouds.5 mph88%29.77 "HgN/A
2:00 AM70 °FPassing clouds.5 mph94%29.80 "HgN/A
1:00 AM70 °FPassing clouds.3 mph94%29.80 "HgN/A
12:00 AM70 °FPassing clouds.5 mph94%29.80 "HgN/A
11:00 PM
Mon, Nov 23
70 °FPartly cloudy.3 mph94%29.83 "Hg6 mi
10:00 PM70 °FPassing clouds.7 mph94%29.80 "Hg4 mi
Weather by CustomWeather, © 2015

See weather overviewHow to use our weather pages